AHY8224 UGTB-UBBB

Flight info

Callsign AHY8224
Flight time 1h 3m
Altitude 37000
Route DISKA M737 VERCA M747 LUSAL N319 PENOB T447 INSAN
Aircraft A320/M-SDE3FGHIRWY/LB1

Departure

Time 2026-04-26 15:50
Airport Tbilisi International Airport (UGTB)

Arrival

Time 2026-04-26 16:54
Airport Heydar Aliyev International Airport (UBBB)
Time Latitude Longitude Altitude Speed Heading
2026-04-26 15:50 41.49855 45.18939 11255 ft 335 kts 133°
2026-04-26 15:50 41.48327 45.21336 12092 ft 341 kts 133°
2026-04-26 15:51 41.46800 45.23777 12962 ft 346 kts 132°
2026-04-26 15:51 41.45255 45.26278 13836 ft 350 kts 132°
2026-04-26 15:51 41.43699 45.28808 14614 ft 355 kts 132°
2026-04-26 15:51 41.42122 45.31373 15369 ft 359 kts 132°
2026-04-26 15:52 41.40553 45.33925 16114 ft 363 kts 132°
2026-04-26 15:52 41.38948 45.36531 16865 ft 366 kts 132°
2026-04-26 15:52 41.37316 45.39178 17619 ft 370 kts 132°
2026-04-26 15:52 41.36232 45.40935 18105 ft 373 kts 132°
2026-04-26 15:53 41.34012 45.44533 18994 ft 378 kts 133°
2026-04-26 15:53 41.32335 45.47247 19641 ft 381 kts 133°
2026-04-26 15:53 41.30639 45.49986 20298 ft 384 kts 133°
2026-04-26 15:53 41.28934 45.52736 20951 ft 387 kts 133°
2026-04-26 15:54 41.27212 45.55511 21617 ft 391 kts 133°
2026-04-26 15:54 41.25471 45.58316 22253 ft 395 kts 133°
2026-04-26 15:54 41.23717 45.61140 22909 ft 398 kts 134°
2026-04-26 15:54 41.21979 45.64049 23572 ft 404 kts 129°
2026-04-26 15:55 41.20584 45.67289 24123 ft 413 kts 118°
2026-04-26 15:55 41.19517 45.70858 24654 ft 418 kts 115°
2026-04-26 15:55 41.18464 45.74484 25178 ft 422 kts 115°
2026-04-26 15:55 41.17400 45.78121 25690 ft 425 kts 115°
2026-04-26 15:56 41.16319 45.81798 26168 ft 429 kts 115°
2026-04-26 15:56 41.15229 45.85499 26624 ft 433 kts 115°
2026-04-26 15:56 41.14131 45.89224 27089 ft 436 kts 115°
2026-04-26 15:56 41.13019 45.92990 27556 ft 439 kts 115°
2026-04-26 15:57 41.11899 45.96775 28009 ft 442 kts 115°
2026-04-26 15:57 41.10767 46.00588 28461 ft 445 kts 115°
2026-04-26 15:57 41.09628 46.04431 28906 ft 449 kts 115°
2026-04-26 15:57 41.08871 46.06984 29195 ft 451 kts 115°
2026-04-26 15:58 41.07328 46.12187 29753 ft 454 kts 115°
2026-04-26 15:58 41.06186 46.16035 30166 ft 457 kts 115°
2026-04-26 15:58 41.05009 46.19982 30505 ft 460 kts 115°
2026-04-26 15:58 41.03826 46.23929 30838 ft 463 kts 115°
2026-04-26 15:59 41.02632 46.27911 31161 ft 466 kts 115°
2026-04-26 15:59 41.01429 46.31915 31480 ft 468 kts 115°
2026-04-26 15:59 41.00225 46.35926 31783 ft 471 kts 115°
2026-04-26 15:59 40.99015 46.39956 32195 ft 470 kts 115°
2026-04-26 16:00 40.97812 46.43979 32651 ft 470 kts 115°
2026-04-26 16:00 40.96610 46.47997 33053 ft 470 kts 115°
2026-04-26 16:00 40.95403 46.52018 33443 ft 471 kts 115°
2026-04-26 16:00 40.94183 46.56063 33854 ft 471 kts 115°
2026-04-26 16:01 40.92964 46.60080 34247 ft 471 kts 115°
2026-04-26 16:01 40.91741 46.64094 34634 ft 470 kts 115°
2026-04-26 16:01 40.90522 46.68093 35051 ft 468 kts 115°
2026-04-26 16:01 40.89309 46.72084 35468 ft 466 kts 115°
2026-04-26 16:02 40.88101 46.76060 35874 ft 464 kts 116°
2026-04-26 16:02 40.86914 46.79963 36271 ft 462 kts 116°
2026-04-26 16:02 40.85717 46.83894 36645 ft 460 kts 116°
2026-04-26 16:02 40.84922 46.86491 36889 ft 459 kts 116°
2026-04-26 16:03 40.83358 46.91581 37099 ft 457 kts 116°
2026-04-26 16:03 40.80984 46.99308 37096 ft 452 kts 116°
2026-04-26 16:04 40.78630 47.06986 37111 ft 451 kts 116°
2026-04-26 16:04 40.76271 47.14640 37093 ft 450 kts 116°
2026-04-26 16:05 40.73896 47.22299 37083 ft 451 kts 116°
2026-04-26 16:05 40.71524 47.29944 37069 ft 450 kts 117°
2026-04-26 16:06 40.69156 47.37525 37085 ft 450 kts 117°
2026-04-26 16:06 40.66771 47.45166 37081 ft 450 kts 117°
2026-04-26 16:07 40.64384 47.52788 37095 ft 450 kts 117°
2026-04-26 16:07 40.61987 47.60407 37104 ft 450 kts 117°
2026-04-26 16:08 40.59587 47.68032 37095 ft 451 kts 117°
2026-04-26 16:08 40.57587 47.74370 37098 ft 451 kts 117°
2026-04-26 16:09 40.55173 47.82001 37093 ft 452 kts 117°
2026-04-26 16:09 40.53954 47.85844 36542 ft 459 kts 117°
2026-04-26 16:09 40.52727 47.89709 36036 ft 455 kts 117°
2026-04-26 16:09 40.51513 47.93540 35486 ft 452 kts 116°
2026-04-26 16:10 40.50304 47.97344 34938 ft 450 kts 116°
2026-04-26 16:10 40.49094 48.01131 34392 ft 448 kts 116°
2026-04-26 16:10 40.48158 48.05013 34000 ft 447 kts 102°
2026-04-26 16:10 40.48007 48.09029 33507 ft 446 kts 85°
2026-04-26 16:11 40.48510 48.13036 33003 ft 444 kts 80°
2026-04-26 16:11 40.49084 48.17009 32506 ft 440 kts 80°
2026-04-26 16:11 40.49659 48.20939 32037 ft 436 kts 80°
2026-04-26 16:11 40.50232 48.24841 31584 ft 432 kts 80°
2026-04-26 16:12 40.50795 48.28697 31170 ft 428 kts 80°
2026-04-26 16:12 40.51349 48.32522 30747 ft 424 kts 81°
2026-04-26 16:12 40.52431 48.40062 29876 ft 416 kts 81°
2026-04-26 16:13 40.52964 48.43787 29395 ft 413 kts 81°
2026-04-26 16:13 40.53491 48.47483 28926 ft 410 kts 81°
2026-04-26 16:13 40.54011 48.51145 28466 ft 407 kts 81°
2026-04-26 16:13 40.54530 48.54791 28016 ft 404 kts 81°
2026-04-26 16:14 40.55041 48.58408 27564 ft 401 kts 81°
2026-04-26 16:14 40.55549 48.62015 27048 ft 400 kts 81°
2026-04-26 16:14 40.56546 48.69116 26149 ft 395 kts 81°
2026-04-26 16:15 40.57040 48.72657 25707 ft 392 kts 81°
2026-04-26 16:15 40.57531 48.76174 25274 ft 390 kts 81°
2026-04-26 16:15 40.58017 48.79670 24850 ft 387 kts 81°
2026-04-26 16:16 40.58972 48.86584 24000 ft 382 kts 81°
2026-04-26 16:16 40.59446 48.90006 23585 ft 379 kts 81°
2026-04-26 16:16 40.59918 48.93413 23095 ft 377 kts 81°
2026-04-26 16:16 40.60387 48.96806 22605 ft 376 kts 81°
2026-04-26 16:17 40.60852 49.00184 22065 ft 375 kts 81°
2026-04-26 16:17 40.61316 49.03559 21635 ft 373 kts 80°
2026-04-26 16:17 40.61775 49.06906 21241 ft 371 kts 80°
2026-04-26 16:17 40.62231 49.10237 20801 ft 370 kts 80°
2026-04-26 16:18 40.62682 49.13553 20427 ft 366 kts 80°
2026-04-26 16:18 40.63575 49.20122 19635 ft 363 kts 80°
2026-04-26 16:19 40.64452 49.26601 18928 ft 357 kts 79°
2026-04-26 16:19 40.64875 49.29741 18502 ft 359 kts 79°
2026-04-26 16:19 40.65735 49.36141 17703 ft 355 kts 79°
2026-04-26 16:20 40.66161 49.39307 17304 ft 354 kts 79°
2026-04-26 16:20 40.67006 49.45643 16561 ft 350 kts 80°
2026-04-26 16:20 40.67423 49.48792 16199 ft 348 kts 80°
2026-04-26 16:21 40.67838 49.51919 15927 ft 344 kts 79°
2026-04-26 16:21 40.68250 49.55027 15499 ft 345 kts 80°
2026-04-26 16:21 40.68662 49.58133 15161 ft 344 kts 80°
2026-04-26 16:21 40.69072 49.61220 14889 ft 339 kts 80°
2026-04-26 16:22 40.69475 49.64281 14538 ft 339 kts 81°
2026-04-26 16:22 40.69875 49.67336 14219 ft 337 kts 80°
2026-04-26 16:22 40.70267 49.70353 13966 ft 333 kts 81°
2026-04-26 16:22 40.70655 49.73327 13419 ft 327 kts 81°
2026-04-26 16:23 40.71040 49.76267 12755 ft 324 kts 81°
2026-04-26 16:23 40.71422 49.79180 12108 ft 321 kts 81°
2026-04-26 16:23 40.71797 49.82073 11431 ft 319 kts 83°
2026-04-26 16:23 40.71821 49.84926 10805 ft 312 kts 102°
2026-04-26 16:24 40.71188 49.87615 10167 ft 304 kts 120°
2026-04-26 16:24 40.70205 49.90048 9329 ft 298 kts 122°
2026-04-26 16:24 40.69231 49.92442 8436 ft 294 kts 122°
2026-04-26 16:24 40.68258 49.94813 7637 ft 293 kts 123°
2026-04-26 16:25 40.67304 49.97140 6811 ft 285 kts 122°
2026-04-26 16:25 40.66378 49.99400 5964 ft 275 kts 123°
2026-04-26 16:25 40.65493 50.01590 5223 ft 263 kts 123°
2026-04-26 16:25 40.64673 50.03632 4786 ft 242 kts 123°
2026-04-26 16:26 40.63826 50.05397 4468 ft 211 kts 144°
2026-04-26 16:26 40.63066 50.06030 4331 ft 185 kts 169°
2026-04-26 16:26 40.61474 50.06172 3836 ft 166 kts 185°
2026-04-26 16:26 40.60336 50.06101 3328 ft 165 kts 184°
2026-04-26 16:27 40.59208 50.06072 2960 ft 156 kts 183°
2026-04-26 16:27 40.58177 50.06080 2690 ft 143 kts 181°
2026-04-26 16:27 40.57164 50.06114 2115 ft 148 kts 182°
2026-04-26 16:27 40.56140 50.06150 1682 ft 146 kts 182°
2026-04-26 16:28 40.55118 50.06181 1262 ft 145 kts 180°
2026-04-26 16:28 40.54152 50.06182 1090 ft 134 kts 181°
2026-04-26 16:28 40.53224 50.06216 929 ft 132 kts 180°
2026-04-26 16:28 40.52310 50.06221 776 ft 133 kts 181°
2026-04-26 16:29 40.51388 50.06223 621 ft 129 kts 180°
2026-04-26 16:29 40.50508 50.06251 432 ft 123 kts 178°
2026-04-26 16:29 40.49644 50.06265 290 ft 126 kts 180°
2026-04-26 16:29 40.48773 50.06272 122 ft 127 kts 179°
2026-04-26 16:30 40.47921 50.06285 36 ft 112 kts 179°
2026-04-26 16:30 40.47045 50.06295 512 ft 137 kts 180°
2026-04-26 16:30 40.46048 50.06303 1402 ft 148 kts 180°
2026-04-26 16:30 40.44900 50.06327 1937 ft 181 kts 180°
2026-04-26 16:31 40.43614 50.06405 2482 ft 187 kts 180°
2026-04-26 16:31 40.42314 50.06496 3323 ft 188 kts 180°
2026-04-26 16:31 40.40978 50.06496 3865 ft 195 kts 182°
2026-04-26 16:31 40.39619 50.06466 3986 ft 195 kts 183°
2026-04-26 16:32 40.38268 50.06440 4003 ft 194 kts 182°
2026-04-26 16:32 40.37368 50.06426 3992 ft 195 kts 182°
2026-04-26 16:32 40.35574 50.06409 4008 ft 194 kts 182°
2026-04-26 16:32 40.34221 50.06436 4007 ft 195 kts 175°
2026-04-26 16:33 40.32974 50.07132 4007 ft 203 kts 141°
2026-04-26 16:33 40.32238 50.08743 4009 ft 214 kts 112°
2026-04-26 16:33 40.31873 50.10655 4021 ft 217 kts 107°
2026-04-26 16:33 40.31565 50.12588 4015 ft 216 kts 107°
2026-04-26 16:34 40.31265 50.14514 4019 ft 216 kts 107°
2026-04-26 16:34 40.30969 50.16443 4009 ft 216 kts 107°
2026-04-26 16:34 40.30678 50.18381 4016 ft 217 kts 106°
2026-04-26 16:34 40.30578 50.20345 4020 ft 224 kts 82°
2026-04-26 16:35 40.31291 50.22171 4023 ft 231 kts 47°
2026-04-26 16:35 40.32619 50.23386 4017 ft 235 kts 29°
2026-04-26 16:35 40.34076 50.24375 4008 ft 236 kts 27°
2026-04-26 16:35 40.35549 50.25318 4019 ft 236 kts 26°
2026-04-26 16:36 40.37031 50.26252 4013 ft 235 kts 27°
2026-04-26 16:36 40.38506 50.27174 4021 ft 235 kts 26°
2026-04-26 16:36 40.39983 50.28094 4012 ft 235 kts 26°
2026-04-26 16:36 40.41444 50.29007 4020 ft 236 kts 26°
2026-04-26 16:37 40.43001 50.29768 4014 ft 236 kts 12°
2026-04-26 16:37 40.44602 50.30128 4019 ft 236 kts
2026-04-26 16:37 40.46232 50.30425 4020 ft 236 kts
2026-04-26 16:37 40.47857 50.30708 4024 ft 235 kts
2026-04-26 16:38 40.49480 50.30982 4020 ft 235 kts
2026-04-26 16:38 40.51101 50.31258 4019 ft 235 kts
2026-04-26 16:38 40.52729 50.31532 4020 ft 236 kts
2026-04-26 16:38 40.54365 50.31813 4025 ft 238 kts
2026-04-26 16:39 40.56005 50.32103 4025 ft 238 kts
2026-04-26 16:39 40.57647 50.32394 4024 ft 239 kts
2026-04-26 16:39 40.59294 50.32685 4021 ft 239 kts
2026-04-26 16:39 40.60943 50.32978 4021 ft 239 kts
2026-04-26 16:40 40.62585 50.33269 4020 ft 238 kts
2026-04-26 16:40 40.64226 50.33554 4030 ft 238 kts
2026-04-26 16:40 40.65869 50.33840 4022 ft 238 kts
2026-04-26 16:40 40.67508 50.34126 4025 ft 238 kts
2026-04-26 16:41 40.69129 50.34411 4022 ft 238 kts
2026-04-26 16:41 40.70788 50.34704 4024 ft 237 kts
2026-04-26 16:41 40.72403 50.34992 4040 ft 237 kts
2026-04-26 16:41 40.74041 50.35245 4038 ft 236 kts 358°
2026-04-26 16:42 40.75584 50.34711 4037 ft 228 kts 322°
2026-04-26 16:42 40.76627 50.33239 4037 ft 217 kts 292°
2026-04-26 16:42 40.77300 50.31479 4034 ft 214 kts 288°
2026-04-26 16:42 40.77915 50.29685 4033 ft 214 kts 287°
2026-04-26 16:43 40.78520 50.27881 4028 ft 215 kts 287°
2026-04-26 16:43 40.79124 50.26067 4030 ft 216 kts 287°
2026-04-26 16:43 40.79731 50.24255 4029 ft 216 kts 287°
2026-04-26 16:43 40.80341 50.22441 4023 ft 216 kts 287°
2026-04-26 16:44 40.80729 50.20587 4021 ft 203 kts 261°
2026-04-26 16:44 40.80370 50.18855 4020 ft 194 kts 240°
2026-04-26 16:44 40.79775 50.17262 4019 ft 193 kts 237°
2026-04-26 16:44 40.79141 50.15694 4007 ft 193 kts 236°
2026-04-26 16:45 40.78492 50.14147 4028 ft 193 kts 236°
2026-04-26 16:45 40.77841 50.12603 4064 ft 193 kts 236°
2026-04-26 16:45 40.77205 50.11054 3968 ft 194 kts 236°
2026-04-26 16:45 40.76577 50.09504 3794 ft 189 kts 236°
2026-04-26 16:46 40.75958 50.08018 3673 ft 177 kts 232°
2026-04-26 16:46 40.75144 50.07001 3586 ft 156 kts 201°
2026-04-26 16:46 40.74130 50.06638 3540 ft 153 kts 192°
2026-04-26 16:46 40.73049 50.06406 3429 ft 161 kts 188°
2026-04-26 16:47 40.71941 50.06244 3280 ft 159 kts 187°
2026-04-26 16:47 40.70853 50.06156 3124 ft 155 kts 181°
2026-04-26 16:47 40.69805 50.06160 3016 ft 143 kts 182°
2026-04-26 16:47 40.68878 50.06129 2930 ft 127 kts 185°
2026-04-26 16:48 40.67994 50.06104 2843 ft 126 kts 186°
2026-04-26 16:48 40.67122 50.06031 2800 ft 127 kts 187°
2026-04-26 16:48 40.66237 50.06010 2779 ft 128 kts 182°
2026-04-26 16:48 40.65344 50.06034 2770 ft 127 kts 183°
2026-04-26 16:49 40.64468 50.06075 2757 ft 126 kts 181°
2026-04-26 16:49 40.63592 50.06090 2722 ft 127 kts 182°
2026-04-26 16:49 40.62704 50.06097 2709 ft 129 kts 183°
2026-04-26 16:49 40.61797 50.06087 2601 ft 132 kts 181°
2026-04-26 16:50 40.60885 50.06092 2460 ft 134 kts 182°
2026-04-26 16:50 40.59931 50.06107 2260 ft 135 kts 181°
2026-04-26 16:50 40.59008 50.06133 2063 ft 133 kts 183°
2026-04-26 16:50 40.58092 50.06147 1883 ft 130 kts 182°
2026-04-26 16:51 40.57186 50.06162 1705 ft 131 kts 183°
2026-04-26 16:51 40.56259 50.06173 1555 ft 134 kts 182°
2026-04-26 16:51 40.55328 50.06177 1380 ft 132 kts 182°
2026-04-26 16:51 40.54412 50.06177 1164 ft 131 kts 179°
2026-04-26 16:52 40.53508 50.06194 980 ft 130 kts 179°
2026-04-26 16:52 40.53202 50.06200 918 ft 130 kts 178°
2026-04-26 16:52 40.51729 50.06227 685 ft 128 kts 179°
2026-04-26 16:52 40.50819 50.06248 506 ft 134 kts 179°
2026-04-26 16:53 40.49890 50.06260 291 ft 131 kts 179°
2026-04-26 16:53 40.49000 50.06272 140 ft 125 kts 180°
2026-04-26 16:53 40.48163 50.06282 25 ft 112 kts 179°
2026-04-26 16:53 40.47531 50.06295 8 ft 67 kts 179°
2026-04-26 16:54 40.47182 50.06300 4 ft 43 kts 179°
2026-04-26 16:54 40.46915 50.06303 7 ft 34 kts 179°
2026-04-26 16:54 40.46689 50.06308 8 ft 31 kts 179°
2026-04-26 16:54 40.46589 50.06212 8 ft 10 kts 282°
2026-04-26 16:55 40.46584 50.06132 6 ft 0 kts 269°
2026-04-26 16:55 40.46584 50.06131 6 ft 0 kts 269°